Regional Weather Roundup
Issued by NWS San Diego, CA

Home | Current Version | Previous Version | Text Only | Print | Product List | Glossary On
Versions: 1 2 3 4 5 6 7 8 9 10 11 12 13 14 15 16 17 18 19 20 21 22 23 24 25 26 27 28 29 30 31 32 33 34 35 36 37 38 39 40 41 42 43 44 45 46 47 48 49 50
000
ASUS46 KSGX 201610
RWRSGX

SAN DIEGO HOURLY WEATHER ROUNDUP
NATIONAL WEATHER SERVICE SAN DIEGO CA
900 AM PDT SUN APR 20 2014

NOTE: "FAIR" INDICATES FEW OR NO CLOUDS BELOW 12,000 FEET WITH NO
SIGNIFICANT WEATHER AND/OR OBSTRUCTIONS TO VISIBILITY.

CAZ042-043-060-061-PZZ750-775-201700-

GREATER SAN DIEGO AREA

CITY           SKY/WX    TMP DP  RH WIND       PRES   REMARKS
LINDBERGH FLD  PTSUNNY   64  55  72 CALM      30.07R
NATIONAL CITY    N/A     64  58  82 CALM      30.06S
CHULA VISTA      N/A     63  58  84 W3        29.99S
IMPERIAL BEACH CLOUDY    62  57  83 CALM      30.07R
BROWN FIELD    MOSUNNY   61  55  81 CALM      30.05S
MIRAMAR MCAS   MOSUNNY   63  54  72 VRB3      30.04S
MONTGOMERY FLD MOSUNNY   62  55  77 W3        30.06R

$$

NORTH SAN DIEGO COUNTY

CITY           SKY/WX    TMP DP  RH WIND       PRES   REMARKS
CAMP PENDLETON SUNNY     62  53  72 CALM      30.05S
RED BEACH      FAIR      62  54  74 S7        30.06R HAZE
OCEANSIDE AP   SUNNY     61  54  77 SW3       30.05S
VISTA            N/A     59  56  89 CALM      30.04S
CARLSBAD       SUNNY     62  54  74 W5        30.05R
DEL MAR          N/A     60  57  89 CALM      30.07S
LA JOLLA SCRIP   N/A     58  56  92 CALM      30.04R
FALLBROOK        N/A     61  60  96 CALM      30.04F
ESCONDIDO        N/A     65  57  76 CALM      30.06S
SAN MARCOS       N/A     60  55  82 CALM      30.04R
POWAY            N/A     64  56  76 CALM      30.07S
R. PENASQUITOS   N/A     61  58  90 CALM      30.06S

$$

EAST SAN DIEGO COUNTY

CITY           SKY/WX    TMP DP  RH WIND       PRES   REMARKS
RAMONA         SUNNY     65  51  60 CALM      30.05S
SANTEE LAKES     N/A     62  56  81 CALM      30.07F
GILLESPIE FLD  FAIR      63  54  72 CALM      30.07R
LA MESA          N/A     62  57  82 CALM      29.99F
JAMUL            N/A     59  58  96 CALM      30.04S
DESCANSO N       N/A     71  42  36 CALM      29.95S
MT. LAGUNA OBS   N/A     60  33  36 CALM      29.77
CAMPO            N/A     68  45  43 CALM      30.05S

$$

ORANGE COUNTY AND THE LOS ANGELES BASIN

CITY           SKY/WX    TMP DP  RH WIND       PRES   REMARKS
JOHN WAYNE AP  MOSUNNY   64  55  72 NW3       30.06S
LAGUNA BEACH     N/A     60  56  85 S3        30.04R
LAKE FOREST FR   N/A     59  51  76 CALM      29.97R
SANTA ANA        N/A     60  58  91 CALM      30.02R
HUNTINGTON BCH   N/A     63  59  85 S3        30.07R
LOS ALAMITOS   MOSUNNY   63  56  78 VRB1      30.06S
FULLERTON      SUNNY     64  55  72 CALM      30.05S
LONG BEACH     MOSUNNY   63  54  72 CALM      30.06S
L.A. AP        MOSUNNY   63  56  78 CALM      30.07R
L.A. DOWNTOWN  SUNNY     63  56  78 CALM      30.06R

$$

THE INLAND EMPIRE

CITY           SKY/WX    TMP DP  RH WIND       PRES   REMARKS
CORONA         SUNNY     66  53  63 VRB3      30.06S
CHINO          MOSUNNY   63  54  72 CALM      30.06F HAZE
ONTARIO        MOSUNNY   63  52  67 SW3       30.05F HAZE
SAN BERNARDINO SUNNY     63  46  55 CALM      30.06F
RIVERSIDE AP   SUNNY     65  53  65 CALM      30.05F
RIV CYN CREST    N/A     63  60  91 SW2       30.03F
MORENO VALLEY    N/A     67  58  74 S1        28.17F
MARCH ARB      SUNNY     63  53  68 VRB1      30.06F
HORSETHIEF CYN   N/A     63  51  63 E2        30.05F
PERRIS           N/A     62  58  88 CALM        N/A
MENIFEE          N/A     63  57  80 CALM      30.12S
HEMET EAST       N/A     65  45  48 CALM      30.04S
FRENCH VALLEY  NOT AVBL
TEMECULA         N/A     58  55  89 NW1       30.04S

$$

SAN BERNARDINO AND RIVERSIDE COUNTY MOUNTAINS

CITY           SKY/WX    TMP DP  RH WIND       PRES   REMARKS
BIG BEAR AP    SUNNY     54  30  40 W6        30.26S
BIG BEAR SHEA    N/A     55  28  34 W3        30.10F
ANGELUS OAKS     N/A     56  34  42 MISG      29.99F
PINE COVE        N/A     58  35  42 NW2       30.06R

$$

SOUTHERN DESERT INCLUDING THE COACHELLA VALLEY

CITY           SKY/WX    TMP DP  RH WIND       PRES   REMARKS
PALM SPRINGS   SUNNY     76  47  35 S7        30.02R
THOUSAND PALMS   N/A     75  49  39 W3        29.98R
PALM DESERT      N/A     76  52  42 CALM      29.90F
THERMAL        SUNNY     77  50  38 VRB3      29.98S
BLYTHE         SUNNY     76  37  24 S6        30.00S
IMPERIAL AP    SUNNY     76  57  51 CALM      29.98R
EL CENTRO NAS  SUNNY     75  53  46 CALM      29.98S
YUMA AZ        SUNNY     79  38  22 CALM      30.00R
MEXICALI       SUNNY     72  57  60 SE6       29.99

$$

UPPER DESERT

CITY           SKY/WX    TMP DP  RH WIND       PRES   REMARKS
VICTORVILLE AP SUNNY     66  36  32 SE5       30.10S
HESPERIA         N/A     67  42  40 CALM      30.14F
GRAY BUTTE AP  NOT AVBL
PALMDALE       SUNNY     69  27  20 CALM      30.09R
LANCASTER      SUNNY     68  29  23 CALM      30.08S
EDWARDS AFB    SUNNY     66  28  23 W2        30.07R
DAGGETT        SUNNY     71  34  25 NW13      30.06S
29 PALMS N     SUNNY     72  38  29 NW9       30.13S
NEEDLES        SUNNY     80  39  23 CALM      30.01R

$$

REGIONAL REPORTS

CITY           SKY/WX    TMP DP  RH WIND       PRES   REMARKS
SANTA BARBARA  SUNNY     63  54  72 SE3       30.06R
SANDBERG       SUNNY     64  21  19 N5G16     30.16R
MT. WILSON       N/A     63  41  45 SW1         N/A
LAS VEGAS NV   MOSUNNY   73  36  25 SW7       30.01R
PHOENIX AZ     SUNNY     75  45  34 SE6       30.04R
TIJUANA        SUNNY     63  54  72 S3        30.07S

$$

OFFSHORE ISLANDS

CITY           SKY/WX    TMP DP  RH WIND       PRES   REMARKS
CATALINA ARPT  SUNNY     63  48  58 NW3       30.08R
SAN NICOLAS IS MOSUNNY   61  55  81 NE5       30.06R

$$

MARINE AND OFFSHORE BUOY REPORTS

STATION/POSITION SKY/WX   TEMP    WIND        PRES    SWELL
                          AIR SEA DIR/SP/G            HT/PER/DIR
                          (F)     (DEG/KT/KT) (MB)    (FT/S/D)
S CLEMENTE BASIN           59 62  220/  6/  8 1017.9R   5/130/16
SAN NICOLAS IS.               58                N/A     3/280/13
SO. S. ROSA ISLA           54 57  320/ 10/ 12 1018.3R   7/13
W. S. BARBARA CH           53 54  330/  8/ 10 1018.0R   7/300/ 8
S. MONICA BASIN            61 60  140/  4/  4 1017.7R   5/270/ 7
S PEDRO CHANNEL               60                N/A     2/270/11
DANA POINT                    61                N/A     2/190/17
CMP PENDLETON NS              61                N/A     2/220/17
OCEANSIDE OFFSHR              62                N/A     2/200/17
TORREY PINES OTR              62                N/A     2/250/14
LA JOLLA 1                 60 62  300/  3/  4 1018.0R
MISSION BAY BUOY              62                N/A     3/250/17
SAN DIEGO BAY                 65              1018.0R
POINT LOMA SOUTH              63                N/A     3/190/15

$$




USA.gov is the U.S. government's official web portal to all federal, state and local government web resources and services.